Time,TemperatureF,DewpointF,PressureIn,WindDirection,WindDirectionDegrees,WindSpeedMPH,WindSpeedGustMPH,Humidity,HourlyPrecipIn,Conditions,Clouds,dailyrainin,SoftwareType,DateUTC
2013-03-08 00:01:00,43.0,40.0,-100.00,SSE,155,2.0,6.0,89,-99.99,,,-99.99,,2013-03-08 08:01:00,
2013-03-08 00:11:00,43.0,41.0,-100.00,ESE,122,3.0,5.0,91,-99.99,,,-99.99,,2013-03-08 08:11:00,
2013-03-08 00:21:00,43.0,41.0,-100.00,SE,128,3.0,6.0,93,-99.99,,,-99.99,,2013-03-08 08:21:00,
2013-03-08 00:31:00,43.0,41.0,-100.00,SE,136,3.0,3.0,94,-99.99,,,-99.99,,2013-03-08 08:31:00,
2013-03-08 00:41:00,43.0,42.0,-100.00,South,185,1.0,6.0,95,-99.99,,,-99.99,,2013-03-08 08:41:00,
2013-03-08 00:52:00,43.0,42.0,-100.00,SSW,194,2.0,7.0,96,-99.99,,,-99.99,,2013-03-08 08:52:00,
2013-03-08 01:02:00,42.0,41.0,-100.00,South,172,4.0,8.0,96,-99.99,,,-99.99,,2013-03-08 09:02:00,
2013-03-08 01:11:00,42.0,41.0,-100.00,SSE,157,5.0,8.0,96,-99.99,,,-99.99,,2013-03-08 09:11:00,
2013-03-08 01:21:00,43.0,42.0,-100.00,SSE,167,5.0,12.0,96,-99.99,,,-99.99,,2013-03-08 09:21:00,
2013-03-08 01:31:00,43.0,42.0,-100.00,South,172,5.0,11.0,97,-99.99,,,-99.99,,2013-03-08 09:31:00,
2013-03-08 01:42:00,43.0,42.0,-100.00,SSW,197,4.0,12.0,97,-99.99,,,-99.99,,2013-03-08 09:42:00,
2013-03-08 01:51:00,43.0,42.0,-100.00,South,190,5.0,11.0,97,-99.99,,,-99.99,,2013-03-08 09:51:00,
2013-03-08 02:01:00,42.0,41.0,-100.00,South,185,5.0,11.0,98,-99.99,,,-99.99,,2013-03-08 10:01:00,
2013-03-08 02:11:00,42.0,41.0,-100.00,South,173,5.0,12.0,98,-99.99,,,-99.99,,2013-03-08 10:11:00,
2013-03-08 02:21:00,42.0,41.0,-100.00,SSE,165,6.0,13.0,98,-99.99,,,-99.99,,2013-03-08 10:21:00,
2013-03-08 02:31:00,42.0,41.0,-100.00,SSE,168,5.0,14.0,97,-99.99,,,-99.99,,2013-03-08 10:31:00,
2013-03-08 02:41:00,41.0,40.0,-100.00,SSE,155,7.0,14.0,97,-99.99,,,-99.99,,2013-03-08 10:41:00,
2013-03-08 02:51:00,41.0,40.0,-100.00,SSE,156,7.0,12.0,96,-99.99,,,-99.99,,2013-03-08 10:51:00,
2013-03-08 03:01:00,41.0,40.0,-100.00,SSE,156,7.0,12.0,96,-99.99,,,-99.99,,2013-03-08 11:01:00,
2013-03-08 03:11:00,41.0,39.0,-100.00,SSE,154,7.0,12.0,94,-99.99,,,-99.99,,2013-03-08 11:11:00,
2013-03-08 03:21:00,41.0,39.0,-100.00,SSE,152,6.0,13.0,94,-99.99,,,-99.99,,2013-03-08 11:21:00,
2013-03-08 03:32:00,41.0,39.0,-100.00,SSE,148,6.0,13.0,93,-99.99,,,-99.99,,2013-03-08 11:32:00,
2013-03-08 03:41:00,40.0,38.0,-100.00,SSE,147,6.0,12.0,94,-99.99,,,-99.99,,2013-03-08 11:41:00,
2013-03-08 03:52:00,40.0,39.0,-100.00,SSE,147,6.0,9.0,95,-99.99,,,-99.99,,2013-03-08 11:52:00,
2013-03-08 04:01:00,40.0,39.0,-100.00,SSE,158,5.0,9.0,95,-99.99,,,-99.99,,2013-03-08 12:01:00,
2013-03-08 04:11:00,40.0,39.0,-100.00,SSE,156,4.0,9.0,95,-99.99,,,-99.99,,2013-03-08 12:11:00,
2013-03-08 04:22:00,40.0,39.0,-100.00,SSE,156,5.0,10.0,95,-99.99,,,-99.99,,2013-03-08 12:22:00,
2013-03-08 04:32:00,40.0,39.0,-100.00,South,175,5.0,10.0,96,-99.99,,,-99.99,,2013-03-08 12:32:00,
2013-03-08 04:42:00,40.0,39.0,-100.00,South,184,6.0,9.0,96,-99.99,,,-99.99,,2013-03-08 12:42:00,
2013-03-08 04:52:00,40.0,39.0,-100.00,SSW,200,4.0,7.0,97,-99.99,,,-99.99,,2013-03-08 12:52:00,
2013-03-08 05:01:00,40.0,39.0,-100.00,SSW,201,4.0,9.0,97,-99.99,,,-99.99,,2013-03-08 13:01:00,
2013-03-08 05:11:00,40.0,39.0,-100.00,SSW,212,4.0,12.0,98,-99.99,,,-99.99,,2013-03-08 13:11:00,
2013-03-08 05:21:00,40.0,39.0,-100.00,SW,223,6.0,17.0,98,-99.99,,,-99.99,,2013-03-08 13:21:00,
2013-03-08 05:32:00,39.0,38.0,-100.00,SW,232,9.0,19.0,95,-99.99,,,-99.99,,2013-03-08 13:32:00,
2013-03-08 05:42:00,39.0,38.0,-100.00,SW,232,9.0,13.0,95,-99.99,,,-99.99,,2013-03-08 13:42:00,
2013-03-08 05:52:00,39.0,38.0,-100.00,SW,227,8.0,20.0,95,-99.99,,,-99.99,,2013-03-08 13:52:00,
2013-03-08 06:02:00,39.0,38.0,-100.00,SW,235,7.0,19.0,95,-99.99,,,-99.99,,2013-03-08 14:02:00,
2013-03-08 06:11:00,39.0,38.0,-100.00,WSW,244,11.0,12.0,96,-99.99,,,-99.99,,2013-03-08 14:11:00,
2013-03-08 06:21:00,39.0,38.0,-100.00,WSW,250,8.0,16.0,96,-99.99,,,-99.99,,2013-03-08 14:21:00,
2013-03-08 06:32:00,38.0,37.0,-100.00,West,266,9.0,16.0,96,-99.99,,,-99.99,,2013-03-08 14:32:00,
2013-03-08 06:42:00,38.0,37.0,-100.00,WSW,257,9.0,18.0,97,-99.99,,,-99.99,,2013-03-08 14:42:00,
2013-03-08 06:52:00,38.0,37.0,-100.00,WSW,254,8.0,14.0,97,-99.99,,,-99.99,,2013-03-08 14:52:00,
2013-03-08 07:02:00,38.0,37.0,-100.00,WSW,252,7.0,8.0,98,-99.99,,,-99.99,,2013-03-08 15:02:00,
2013-03-08 07:11:00,38.0,37.0,-100.00,West,263,5.0,8.0,98,-99.99,,,-99.99,,2013-03-08 15:11:00,
2013-03-08 07:21:00,38.0,37.0,-100.00,West,277,4.0,11.0,98,-99.99,,,-99.99,,2013-03-08 15:21:00,
2013-03-08 07:31:00,38.0,37.0,-100.00,West,261,5.0,9.0,98,-99.99,,,-99.99,,2013-03-08 15:31:00,
2013-03-08 07:42:00,38.0,37.0,-100.00,West,269,4.0,11.0,98,-99.99,,,-99.99,,2013-03-08 15:42:00,
2013-03-08 07:52:00,39.0,38.0,-100.00,West,266,6.0,13.0,98,-99.99,,,-99.99,,2013-03-08 15:52:00,
2013-03-08 08:01:00,39.0,38.0,-100.00,WSW,243,6.0,9.0,98,-99.99,,,-99.99,,2013-03-08 16:01:00,
2013-03-08 08:11:00,39.0,38.0,-100.00,WSW,243,5.0,8.0,98,-99.99,,,-99.99,,2013-03-08 16:11:00,
2013-03-08 08:21:00,39.0,38.0,-100.00,SW,232,4.0,7.0,98,-99.99,,,-99.99,,2013-03-08 16:21:00,
2013-03-08 08:31:00,39.0,38.0,-100.00,SW,221,5.0,7.0,98,-99.99,,,-99.99,,2013-03-08 16:31:00,
2013-03-08 08:41:00,39.0,38.0,-100.00,SW,226,4.0,13.0,97,-99.99,,,-99.99,,2013-03-08 16:41:00,
2013-03-08 08:51:00,37.0,35.0,-100.00,SW,227,7.0,11.0,94,-99.99,,,-99.99,,2013-03-08 16:51:00,
2013-03-08 09:02:00,37.0,36.0,-100.00,SW,225,6.0,7.0,95,-99.99,,,-99.99,,2013-03-08 17:02:00,
2013-03-08 09:11:00,37.0,36.0,-100.00,SW,227,4.0,7.0,96,-99.99,,,-99.99,,2013-03-08 17:11:00,
2013-03-08 09:21:00,38.0,37.0,-100.00,WSW,237,3.0,10.0,96,-99.99,,,-99.99,,2013-03-08 17:21:00,
2013-03-08 09:31:00,39.0,38.0,-100.00,SW,234,5.0,14.0,96,-99.99,,,-99.99,,2013-03-08 17:31:00,
2013-03-08 09:41:00,40.0,39.0,-100.00,WSW,248,7.0,10.0,95,-99.99,,,-99.99,,2013-03-08 17:41:00,
2013-03-08 09:52:00,40.0,38.0,-100.00,WSW,247,6.0,9.0,94,-99.99,,,-99.99,,2013-03-08 17:52:00,
2013-03-08 10:01:00,40.0,37.0,-100.00,SW,234,4.0,10.0,90,-99.99,,,-99.99,,2013-03-08 18:01:00,
2013-03-08 10:11:00,41.0,37.0,-100.00,SW,224,5.0,8.0,86,-99.99,,,-99.99,,2013-03-08 18:11:00,
2013-03-08 10:21:00,41.0,36.0,-100.00,SW,226,4.0,10.0,82,-99.99,,,-99.99,,2013-03-08 18:21:00,
2013-03-08 10:31:00,42.0,37.0,-100.00,SSW,212,5.0,12.0,81,-99.99,,,-99.99,,2013-03-08 18:31:00,
2013-03-08 10:42:00,43.0,36.0,-100.00,SSW,212,6.0,15.0,77,-99.99,,,-99.99,,2013-03-08 18:42:00,
2013-03-08 10:51:00,44.0,37.0,-100.00,SSW,210,9.0,18.0,75,-99.99,,,-99.99,,2013-03-08 18:51:00,
2013-03-08 11:01:00,43.0,35.0,-100.00,SW,235,10.0,19.0,74,-99.99,,,-99.99,,2013-03-08 19:01:00,
2013-03-08 11:11:00,41.0,37.0,-100.00,WSW,254,11.0,13.0,85,-99.99,,,-99.99,,2013-03-08 19:11:00,
2013-03-08 11:21:00,38.0,36.0,-100.00,West,259,7.0,12.0,91,-99.99,,,-99.99,,2013-03-08 19:21:00,
2013-03-08 11:31:00,37.0,35.0,-100.00,WSW,256,7.0,14.0,94,-99.99,,,-99.99,,2013-03-08 19:31:00,
2013-03-08 11:41:00,36.0,35.0,-100.00,WSW,248,6.0,7.0,95,-99.99,,,-99.99,,2013-03-08 19:41:00,
2013-03-08 11:51:00,35.0,34.0,-100.00,SSW,206,4.0,6.0,95,-99.99,,,-99.99,,2013-03-08 19:51:00,
2013-03-08 12:01:00,36.0,35.0,-100.00,SSW,200,3.0,6.0,96,-99.99,,,-99.99,,2013-03-08 20:01:00,
2013-03-08 12:11:00,37.0,36.0,-100.00,SW,224,2.0,8.0,96,-99.99,,,-99.99,,2013-03-08 20:11:00,
2013-03-08 12:21:00,37.0,36.0,-100.00,WSW,240,5.0,15.0,95,-99.99,,,-99.99,,2013-03-08 20:21:00,
2013-03-08 12:31:00,36.0,35.0,-100.00,SW,235,8.0,8.0,96,-99.99,,,-99.99,,2013-03-08 20:31:00,
2013-03-08 12:41:00,36.0,35.0,-100.00,SW,218,4.0,6.0,96,-99.99,,,-99.99,,2013-03-08 20:41:00,
2013-03-08 12:52:00,37.0,36.0,-100.00,SSW,192,4.0,9.0,96,-99.99,,,-99.99,,2013-03-08 20:52:00,
2013-03-08 13:01:00,37.0,35.0,-100.00,SSW,196,3.0,12.0,92,-99.99,,,-99.99,,2013-03-08 21:01:00,
2013-03-08 13:11:00,37.0,34.0,-100.00,SSW,204,7.0,12.0,90,-99.99,,,-99.99,,2013-03-08 21:11:00,
2013-03-08 13:21:00,36.0,33.0,-100.00,SW,229,5.0,10.0,90,-99.99,,,-99.99,,2013-03-08 21:21:00,
2013-03-08 13:32:00,35.0,33.0,-100.00,WSW,238,5.0,11.0,94,-99.99,,,-99.99,,2013-03-08 21:32:00,
2013-03-08 13:41:00,35.0,33.0,-100.00,WSW,238,5.0,11.0,94,-99.99,,,-99.99,,2013-03-08 21:41:00,
2013-03-08 13:51:00,34.0,33.0,-100.00,SW,223,6.0,6.0,95,-99.99,,,-99.99,,2013-03-08 21:51:00,
2013-03-08 14:01:00,34.0,33.0,-100.00,SE,130,2.0,2.0,96,-99.99,,,-99.99,,2013-03-08 22:01:00,
2013-03-08 14:11:00,35.0,34.0,-100.00,SE,130,1.0,5.0,96,-99.99,,,-99.99,,2013-03-08 22:11:00,
2013-03-08 14:21:00,37.0,36.0,-100.00,SSE,153,3.0,5.0,95,-99.99,,,-99.99,,2013-03-08 22:21:00,
2013-03-08 14:32:00,38.0,36.0,-100.00,ESE,118,2.0,5.0,94,-99.99,,,-99.99,,2013-03-08 22:32:00,
2013-03-08 14:41:00,39.0,37.0,-100.00,SSE,157,3.0,6.0,94,-99.99,,,-99.99,,2013-03-08 22:41:00,
2013-03-08 14:52:00,39.0,37.0,-100.00,South,174,2.0,8.0,92,-99.99,,,-99.99,,2013-03-08 22:52:00,
2013-03-08 15:01:00,39.0,36.0,-100.00,South,171,4.0,7.0,90,-99.99,,,-99.99,,2013-03-08 23:01:00,
2013-03-08 15:11:00,39.0,37.0,-100.00,South,176,4.0,10.0,91,-99.99,,,-99.99,,2013-03-08 23:11:00,
2013-03-08 15:21:00,39.0,37.0,-100.00,SSW,205,4.0,10.0,91,-99.99,,,-99.99,,2013-03-08 23:21:00,
2013-03-08 15:31:00,39.0,37.0,-100.00,WSW,245,4.0,11.0,91,-99.99,,,-99.99,,2013-03-08 23:31:00,
2013-03-08 15:41:00,38.0,36.0,-100.00,West,266,6.0,12.0,93,-99.99,,,-99.99,,2013-03-08 23:41:00,
2013-03-08 15:52:00,37.0,36.0,-100.00,West,266,5.0,9.0,96,-99.99,,,-99.99,,2013-03-08 23:52:00,
2013-03-08 16:01:00,37.0,36.0,-100.00,West,266,5.0,9.0,96,-99.99,,,-99.99,,2013-03-09 00:01:00,
2013-03-08 16:11:00,37.0,36.0,-100.00,SW,230,4.0,5.0,96,-99.99,,,-99.99,,2013-03-09 00:11:00,
2013-03-08 16:21:00,38.0,37.0,-100.00,South,176,3.0,3.0,96,-99.99,,,-99.99,,2013-03-09 00:21:00,
2013-03-08 16:31:00,38.0,37.0,-100.00,SSW,210,1.0,6.0,95,-99.99,,,-99.99,,2013-03-09 00:31:00,
2013-03-08 16:42:00,38.0,36.0,-100.00,South,183,3.0,5.0,94,-99.99,,,-99.99,,2013-03-09 00:42:00,
2013-03-08 16:50:00,39.0,37.0,-100.00,SW,221,3.0,8.0,93,-99.99,,,-99.99,,2013-03-09 00:50:00,
2013-03-08 16:51:00,39.0,37.0,-100.00,SSW,202,2.0,9.0,94,-99.99,,,-99.99,,2013-03-09 00:51:00,
2013-03-08 17:01:00,39.0,37.0,-100.00,South,191,4.0,5.0,92,-99.99,,,-99.99,,2013-03-09 01:01:00,
2013-03-08 17:12:00,39.0,37.0,-100.00,SSW,192,3.0,6.0,93,-99.99,,,-99.99,,2013-03-09 01:12:00,
2013-03-08 17:21:00,39.0,37.0,-100.00,SW,221,3.0,8.0,93,-99.99,,,-99.99,,2013-03-09 01:21:00,
2013-03-08 17:31:00,39.0,37.0,-100.00,SW,221,3.0,8.0,93,-99.99,,,-99.99,,2013-03-09 01:31:00,
2013-03-08 17:41:00,39.0,37.0,-100.00,SW,221,3.0,8.0,93,-99.99,,,-99.99,,2013-03-09 01:41:00,
2013-03-08 19:11:00,38.0,37.0,-100.00,WSW,243,8.0,13.0,96,-99.99,,,-99.99,,2013-03-09 03:11:00,
2013-03-08 19:21:00,38.0,37.0,-100.00,WSW,243,8.0,13.0,96,-99.99,,,-99.99,,2013-03-09 03:21:00,
2013-03-08 19:31:00,38.0,37.0,-100.00,WSW,243,9.0,16.0,97,-99.99,,,-99.99,,2013-03-09 03:31:00,
2013-03-08 19:41:00,38.0,37.0,-100.00,WSW,245,9.0,17.0,97,-99.99,,,-99.99,,2013-03-09 03:41:00,
2013-03-08 19:52:00,38.0,37.0,-100.00,WSW,246,10.0,17.0,97,-99.99,,,-99.99,,2013-03-09 03:52:00,
2013-03-08 20:01:00,38.0,37.0,-100.00,WSW,246,10.0,16.0,97,-99.99,,,-99.99,,2013-03-09 04:01:00,
2013-03-08 20:11:00,38.0,37.0,-100.00,WSW,247,10.0,13.0,98,-99.99,,,-99.99,,2013-03-09 04:11:00,
2013-03-08 20:22:00,38.0,37.0,-100.00,West,263,8.0,13.0,98,-99.99,,,-99.99,,2013-03-09 04:22:00,
2013-03-08 20:31:00,38.0,37.0,-100.00,WSW,245,7.0,11.0,98,-99.99,,,-99.99,,2013-03-09 04:31:00,
2013-03-08 20:41:00,38.0,37.0,-100.00,WSW,241,7.0,13.0,98,-99.99,,,-99.99,,2013-03-09 04:41:00,
2013-03-08 20:51:00,37.0,36.0,-100.00,WSW,241,7.0,11.0,98,-99.99,,,-99.99,,2013-03-09 04:51:00,
2013-03-08 21:01:00,37.0,36.0,-100.00,WSW,241,7.0,11.0,98,-99.99,,,-99.99,,2013-03-09 05:01:00,
2013-03-08 21:11:00,37.0,36.0,-100.00,SW,233,7.0,8.0,98,-99.99,,,-99.99,,2013-03-09 05:11:00,
2013-03-08 21:21:00,37.0,36.0,-100.00,WSW,239,5.0,7.0,98,-99.99,,,-99.99,,2013-03-09 05:21:00,
2013-03-08 21:31:00,37.0,36.0,-100.00,SW,222,3.0,5.0,98,-99.99,,,-99.99,,2013-03-09 05:31:00,
2013-03-08 21:42:00,37.0,36.0,-100.00,SSW,211,3.0,5.0,98,-99.99,,,-99.99,,2013-03-09 05:42:00,
2013-03-08 21:52:00,38.0,37.0,-100.00,SW,229,6.0,9.0,98,-99.99,,,-99.99,,2013-03-09 05:52:00,
2013-03-08 22:01:00,38.0,37.0,-100.00,SW,229,6.0,9.0,98,-99.99,,,-99.99,,2013-03-09 06:01:00,
2013-03-08 22:11:00,37.0,36.0,-100.00,SW,235,6.0,8.0,98,-99.99,,,-99.99,,2013-03-09 06:11:00,
2013-03-08 22:22:00,37.0,36.0,-100.00,SW,224,4.0,7.0,98,-99.99,,,-99.99,,2013-03-09 06:22:00,
2013-03-08 22:31:00,38.0,37.0,-100.00,South,181,3.0,6.0,98,-99.99,,,-99.99,,2013-03-09 06:31:00,
2013-03-08 22:42:00,38.0,37.0,-100.00,South,181,3.0,6.0,98,-99.99,,,-99.99,,2013-03-09 06:42:00,
2013-03-08 22:51:00,38.0,37.0,-100.00,South,178,3.0,8.0,98,-99.99,,,-99.99,,2013-03-09 06:51:00,
2013-03-08 23:01:00,38.0,37.0,-100.00,South,181,4.0,6.0,98,-99.99,,,-99.99,,2013-03-09 07:01:00,
2013-03-08 23:11:00,38.0,37.0,-100.00,South,184,3.0,7.0,97,-99.99,,,-99.99,,2013-03-09 07:11:00,
2013-03-08 23:21:00,38.0,37.0,-100.00,South,186,4.0,9.0,97,-99.99,,,-99.99,,2013-03-09 07:21:00,
2013-03-08 23:31:00,38.0,37.0,-100.00,South,175,4.0,7.0,97,-99.99,,,-99.99,,2013-03-09 07:31:00,
2013-03-08 23:41:00,38.0,37.0,-100.00,South,175,4.0,7.0,97,-99.99,,,-99.99,,2013-03-09 07:41:00,
2013-03-08 23:51:00,38.0,37.0,-100.00,South,183,4.0,8.0,97,-99.99,,,-99.99,,2013-03-09 07:51:00,